Time,TemperatureF,DewpointF,PressureIn,WindDirection,WindDirectionDegrees,WindSpeedMPH,WindSpeedGustMPH,Humidity,HourlyPrecipIn,Conditions,Clouds,dailyrainin,SolarRadiationWatts/m^2,SoftwareType,DateUTC
2013-01-17 00:02:00,51.0,24.0,-100.00,East,99,10.0,18.0,35,0.00,,,0.00,0.000000,,2013-01-17 08:02:00,
2013-01-17 00:11:00,50.0,25.0,-100.00,East,90,8.0,12.0,37,0.00,,,0.00,0.000000,,2013-01-17 08:11:00,
2013-01-17 00:32:00,50.0,25.0,-100.00,East,90,8.0,12.0,37,0.00,,,0.00,0.000000,,2013-01-17 08:32:00,
2013-01-17 00:43:00,50.0,25.0,-100.00,East,90,8.0,12.0,37,0.00,,,0.00,0.000000,,2013-01-17 08:43:00,
2013-01-17 00:52:00,50.0,25.0,-100.00,East,90,8.0,12.0,37,0.00,,,0.00,0.000000,,2013-01-17 08:52:00,
2013-01-17 01:02:00,50.0,25.0,-100.00,East,90,8.0,12.0,37,0.00,,,0.00,0.000000,,2013-01-17 09:02:00,
2013-01-17 01:11:00,47.0,25.0,-100.00,East,100,5.0,11.0,42,0.00,,,-99.99,0.000000,,2013-01-17 09:11:00,
2013-01-17 01:33:00,47.0,25.0,-100.00,East,100,5.0,11.0,42,0.00,,,-99.99,0.000000,,2013-01-17 09:33:00,
2013-01-17 01:42:00,47.0,25.0,-100.00,East,100,5.0,11.0,42,0.00,,,-99.99,0.000000,,2013-01-17 09:42:00,
2013-01-17 01:52:00,47.0,25.0,-100.00,East,100,5.0,11.0,42,0.00,,,-99.99,0.000000,,2013-01-17 09:52:00,
2013-01-17 02:02:00,47.0,25.0,-100.00,East,100,5.0,11.0,42,0.00,,,-99.99,0.000000,,2013-01-17 10:02:00,
2013-01-17 02:11:00,46.0,25.0,-100.00,ESE,104,5.0,7.0,44,0.00,,,0.00,0.000000,,2013-01-17 10:11:00,
2013-01-17 02:33:00,46.0,25.0,-100.00,ESE,104,5.0,7.0,44,0.00,,,0.00,0.000000,,2013-01-17 10:33:00,
2013-01-17 02:43:00,46.0,25.0,-100.00,ESE,104,5.0,7.0,44,0.00,,,0.00,0.000000,,2013-01-17 10:43:00,
2013-01-17 02:53:00,46.0,25.0,-100.00,ESE,104,5.0,7.0,44,0.00,,,0.00,0.000000,,2013-01-17 10:53:00,
2013-01-17 03:02:00,46.0,25.0,-100.00,ESE,104,5.0,7.0,44,0.00,,,0.00,0.000000,,2013-01-17 11:02:00,
2013-01-17 03:11:00,50.0,25.0,-100.00,East,81,7.0,11.0,37,0.00,,,0.00,0.000000,,2013-01-17 11:11:00,
2013-01-17 03:33:00,50.0,25.0,-100.00,East,81,7.0,11.0,37,0.00,,,0.00,0.000000,,2013-01-17 11:33:00,
2013-01-17 03:43:00,50.0,25.0,-100.00,East,81,7.0,11.0,37,0.00,,,0.00,0.000000,,2013-01-17 11:43:00,
2013-01-17 03:53:00,50.0,25.0,-100.00,East,81,7.0,11.0,37,0.00,,,0.00,0.000000,,2013-01-17 11:53:00,
2013-01-17 04:02:00,50.0,25.0,-100.00,East,81,7.0,11.0,37,0.00,,,0.00,0.000000,,2013-01-17 12:02:00,
2013-01-17 04:33:00,53.0,23.0,-100.00,East,98,13.0,18.0,31,-99.99,,,0.00,0.000000,,2013-01-17 12:33:00,
2013-01-17 05:11:00,54.0,22.0,-100.00,ESE,110,11.0,18.0,28,0.00,,,-99.99,0.000000,,2013-01-17 13:11:00,
2013-01-17 05:33:00,54.0,22.0,-100.00,ESE,110,11.0,18.0,28,0.00,,,-99.99,0.000000,,2013-01-17 13:33:00,
2013-01-17 05:43:00,54.0,22.0,-100.00,ESE,110,11.0,18.0,28,0.00,,,-99.99,0.000000,,2013-01-17 13:43:00,
2013-01-17 05:53:00,54.0,22.0,-100.00,ESE,110,11.0,18.0,28,0.00,,,-99.99,0.000000,,2013-01-17 13:53:00,
2013-01-17 06:03:00,54.0,22.0,-100.00,ESE,110,11.0,18.0,28,0.00,,,-99.99,0.000000,,2013-01-17 14:03:00,
2013-01-17 06:11:00,54.0,21.0,-100.00,ESE,102,14.0,20.0,27,0.00,,,0.00,0.000000,,2013-01-17 14:11:00,
2013-01-17 06:33:00,54.0,21.0,-100.00,ESE,102,14.0,20.0,27,0.00,,,0.00,0.000000,,2013-01-17 14:33:00,
2013-01-17 06:43:00,54.0,21.0,-100.00,ESE,102,14.0,20.0,27,0.00,,,0.00,0.000000,,2013-01-17 14:43:00,
2013-01-17 06:53:00,54.0,21.0,-100.00,ESE,102,14.0,20.0,27,0.00,,,0.00,0.000000,,2013-01-17 14:53:00,
2013-01-17 07:02:00,54.0,21.0,-100.00,ESE,102,14.0,20.0,27,0.00,,,0.00,0.000000,,2013-01-17 15:02:00,
2013-01-17 07:11:00,54.0,19.0,-100.00,ESE,112,15.0,22.0,25,0.00,,,0.00,1.000000,,2013-01-17 15:11:00,
2013-01-17 07:33:00,54.0,19.0,-100.00,ESE,112,15.0,22.0,25,0.00,,,0.00,1.000000,,2013-01-17 15:33:00,
2013-01-17 07:43:00,54.0,19.0,-100.00,ESE,112,15.0,22.0,25,0.00,,,0.00,1.000000,,2013-01-17 15:43:00,
2013-01-17 07:53:00,54.0,19.0,-100.00,ESE,112,15.0,22.0,25,0.00,,,0.00,1.000000,,2013-01-17 15:53:00,
2013-01-17 08:02:00,54.0,19.0,-100.00,ESE,112,15.0,22.0,25,0.00,,,0.00,1.000000,,2013-01-17 16:02:00,
2013-01-17 08:33:00,58.0,17.0,-100.00,ESE,109,14.0,21.0,20,0.00,,,0.00,35.000000,,2013-01-17 16:33:00,
2013-01-17 09:33:00,61.0,18.0,-100.00,ESE,116,14.0,19.0,19,-99.99,,,0.00,220.000000,,2013-01-17 17:33:00,
2013-01-17 10:03:00,61.0,18.0,-100.00,ESE,116,14.0,19.0,19,-99.99,,,0.00,220.000000,,2013-01-17 18:03:00,
2013-01-17 10:11:00,65.0,22.0,-100.00,ESE,121,12.0,21.0,19,-99.99,,,0.00,372.000000,,2013-01-17 18:11:00,
2013-01-17 10:34:00,65.0,22.0,-100.00,ESE,121,12.0,21.0,19,-99.99,,,0.00,372.000000,,2013-01-17 18:34:00,
2013-01-17 11:11:00,69.0,26.0,-100.00,South,170,9.0,16.0,20,0.00,,,0.00,495.000000,,2013-01-17 19:11:00,
2013-01-17 11:43:00,69.0,26.0,-100.00,South,170,9.0,16.0,20,0.00,,,0.00,495.000000,,2013-01-17 19:43:00,
2013-01-17 11:53:00,69.0,26.0,-100.00,South,170,9.0,16.0,20,0.00,,,0.00,495.000000,,2013-01-17 19:53:00,
2013-01-17 12:02:00,69.0,26.0,-100.00,South,170,9.0,16.0,20,0.00,,,0.00,495.000000,,2013-01-17 20:02:00,
2013-01-17 12:11:00,70.0,27.0,-100.00,South,170,11.0,18.0,20,0.00,,,0.00,560.000000,,2013-01-17 20:11:00,
2013-01-17 12:43:00,70.0,27.0,-100.00,South,170,11.0,18.0,20,0.00,,,0.00,560.000000,,2013-01-17 20:43:00,
2013-01-17 12:53:00,70.0,27.0,-100.00,South,170,11.0,18.0,20,0.00,,,0.00,560.000000,,2013-01-17 20:53:00,
2013-01-17 13:02:00,70.0,27.0,-100.00,South,170,11.0,18.0,20,0.00,,,0.00,560.000000,,2013-01-17 21:02:00,
2013-01-17 13:11:00,72.0,25.0,-100.00,South,182,7.0,15.0,17,0.00,,,0.00,564.000000,,2013-01-17 21:11:00,
2013-01-17 13:34:00,72.0,25.0,-100.00,South,182,7.0,15.0,17,0.00,,,0.00,564.000000,,2013-01-17 21:34:00,
2013-01-17 13:43:00,72.0,25.0,-100.00,South,182,7.0,15.0,17,0.00,,,0.00,564.000000,,2013-01-17 21:43:00,
2013-01-17 14:11:00,72.0,29.0,-100.00,WNW,297,8.0,12.0,20,0.00,,,0.00,517.000000,,2013-01-17 22:11:00,
2013-01-17 14:33:00,72.0,29.0,-100.00,WNW,297,8.0,12.0,20,0.00,,,0.00,517.000000,,2013-01-17 22:33:00,
2013-01-17 14:43:00,72.0,29.0,-100.00,WNW,297,8.0,12.0,20,0.00,,,0.00,517.000000,,2013-01-17 22:43:00,
2013-01-17 14:52:00,72.0,29.0,-100.00,WNW,297,8.0,12.0,20,0.00,,,0.00,517.000000,,2013-01-17 22:52:00,
2013-01-17 15:02:00,72.0,29.0,-100.00,WNW,297,8.0,12.0,20,0.00,,,0.00,517.000000,,2013-01-17 23:02:00,
2013-01-17 15:11:00,71.0,31.0,-100.00,WNW,298,8.0,11.0,23,0.00,,,0.00,414.000000,,2013-01-17 23:11:00,
2013-01-17 15:43:00,71.0,31.0,-100.00,WNW,298,8.0,11.0,23,0.00,,,0.00,414.000000,,2013-01-17 23:43:00,
2013-01-17 15:53:00,71.0,31.0,-100.00,WNW,298,8.0,11.0,23,0.00,,,0.00,414.000000,,2013-01-17 23:53:00,
2013-01-17 16:02:00,71.0,31.0,-100.00,WNW,298,8.0,11.0,23,0.00,,,0.00,414.000000,,2013-01-18 00:02:00,
2013-01-17 16:11:00,70.0,34.0,-100.00,West,275,5.0,9.0,27,0.00,,,0.00,163.000000,,2013-01-18 00:11:00,
2013-01-17 16:43:00,70.0,34.0,-100.00,West,275,5.0,9.0,27,0.00,,,0.00,163.000000,,2013-01-18 00:43:00,
2013-01-17 16:53:00,70.0,34.0,-100.00,West,275,5.0,9.0,27,0.00,,,0.00,163.000000,,2013-01-18 00:53:00,
2013-01-17 17:02:00,70.0,34.0,-100.00,West,275,5.0,9.0,27,0.00,,,0.00,163.000000,,2013-01-18 01:02:00,
2013-01-17 17:11:00,61.0,35.0,-100.00,SE,131,2.0,6.0,38,0.00,,,0.00,64.000000,,2013-01-18 01:11:00,
2013-01-17 17:33:00,61.0,35.0,-100.00,SE,131,2.0,6.0,38,0.00,,,0.00,64.000000,,2013-01-18 01:33:00,
2013-01-17 17:43:00,61.0,35.0,-100.00,SE,131,2.0,6.0,38,0.00,,,0.00,64.000000,,2013-01-18 01:43:00,
2013-01-17 17:52:00,61.0,35.0,-100.00,SE,131,2.0,6.0,38,0.00,,,0.00,64.000000,,2013-01-18 01:52:00,
2013-01-17 18:02:00,61.0,35.0,-100.00,SE,131,2.0,6.0,38,0.00,,,0.00,64.000000,,2013-01-18 02:02:00,
2013-01-17 18:11:00,57.0,33.0,-100.00,East,80,7.0,12.0,40,0.00,,,0.00,1.000000,,2013-01-18 02:11:00,
2013-01-17 18:43:00,57.0,33.0,-100.00,East,80,7.0,12.0,40,0.00,,,0.00,1.000000,,2013-01-18 02:43:00,
2013-01-17 18:53:00,57.0,33.0,-100.00,East,80,7.0,12.0,40,0.00,,,0.00,1.000000,,2013-01-18 02:53:00,
2013-01-17 19:02:00,57.0,33.0,-100.00,East,80,7.0,12.0,40,0.00,,,0.00,1.000000,,2013-01-18 03:02:00,
2013-01-17 19:11:00,56.0,26.0,-100.00,East,85,6.0,13.0,31,0.00,,,-99.99,0.000000,,2013-01-18 03:11:00,
2013-01-17 19:33:00,56.0,26.0,-100.00,East,85,6.0,13.0,31,0.00,,,-99.99,0.000000,,2013-01-18 03:33:00,
2013-01-17 19:43:00,56.0,26.0,-100.00,East,85,6.0,13.0,31,0.00,,,-99.99,0.000000,,2013-01-18 03:43:00,
2013-01-17 19:52:00,56.0,26.0,-100.00,East,85,6.0,13.0,31,0.00,,,-99.99,0.000000,,2013-01-18 03:52:00,
2013-01-17 20:02:00,56.0,26.0,-100.00,East,85,6.0,13.0,31,0.00,,,-99.99,0.000000,,2013-01-18 04:02:00,
2013-01-17 20:11:00,53.0,24.0,-100.00,ESE,110,5.0,9.0,32,0.00,,,0.00,0.000000,,2013-01-18 04:11:00,
2013-01-17 20:33:00,53.0,24.0,-100.00,ESE,110,5.0,9.0,32,0.00,,,0.00,0.000000,,2013-01-18 04:33:00,
2013-01-17 20:42:00,53.0,24.0,-100.00,ESE,110,5.0,9.0,32,0.00,,,0.00,0.000000,,2013-01-18 04:42:00,
2013-01-17 20:53:00,53.0,24.0,-100.00,ESE,110,5.0,9.0,32,0.00,,,0.00,0.000000,,2013-01-18 04:53:00,
2013-01-17 21:03:00,53.0,24.0,-100.00,ESE,110,5.0,9.0,32,0.00,,,0.00,0.000000,,2013-01-18 05:03:00,
2013-01-17 21:33:00,55.0,18.0,-100.00,ENE,74,5.0,8.0,23,0.00,,,0.00,0.000000,,2013-01-18 05:33:00,
2013-01-17 22:11:00,56.0,18.0,-100.00,East,79,4.0,10.0,22,0.00,,,0.00,0.000000,,2013-01-18 06:11:00,
2013-01-17 22:33:00,56.0,18.0,-100.00,East,79,4.0,10.0,22,0.00,,,0.00,0.000000,,2013-01-18 06:33:00,
2013-01-17 23:02:00,56.0,18.0,-100.00,East,79,4.0,10.0,22,0.00,,,0.00,0.000000,,2013-01-18 07:02:00,
2013-01-17 23:11:00,56.0,17.0,-100.00,ENE,78,10.0,14.0,21,0.00,,,0.00,0.000000,,2013-01-18 07:11:00,
2013-01-17 23:33:00,56.0,17.0,-100.00,ENE,78,10.0,14.0,21,0.00,,,0.00,0.000000,,2013-01-18 07:33:00,
2013-01-17 23:42:00,56.0,17.0,-100.00,ENE,78,10.0,14.0,21,0.00,,,0.00,0.000000,,2013-01-18 07:42:00,
2013-01-17 23:52:00,56.0,17.0,-100.00,ENE,78,10.0,14.0,21,0.00,,,0.00,0.000000,,2013-01-18 07:52:00,